User: anonymous   Login
Location: Heilwood
(40.6210°N, 78.9150°W)
Time: 18:12:18
(UTC-04:00)
Language:

BREEZE-M DEB (TANK) - Orbit

View from above orbital plane
View from above orbital plane
View from above satellite
View from above satellite

Ground track
Ground track

The orbit data is extracted from the following two-line orbital elements,

1 29649U 06056B   16150.29705986 +.00002629 +00000-0 +36126-3 0  9996
2 29649 049.4582 154.3747 5398843 281.9323 024.9203 04.98446014168626
Epoch (UTC): 29 May 2016 07:07:45
Eccentricity: 0.5398843
inclination: 49.4582°
perigee height: 282 km
apogee height: 15913 km
right ascension of ascending node: 154.3747°
argument of perigee: 281.9323°
revolutions per day: 4.98446014
mean anomaly at epoch: 24.9203°
orbit number at epoch: 16862

The dashed part of the orbit path shows where the satellite is in the earth's shadow,  

DLR